Regional Weather Roundup
Issued by NWS

Home | Current Version | Previous Version | Text Only | Print | Product List | Glossary Off
Versions: 1 2 3 4 5 6 7 8 9 10 11 12 13 14 15 16 17 18 19 20 21 22 23 24 25 26 27 28 29 30 31 32 33 34 35 36 37 38 39 40 41 42 43 44 45 46 47 48 49 50

636
ASUS43 KLSX 051057
RWRMO

WEATHER SUMMARY FOR MISSOURI
NATIONAL WEATHER SERVICE SPRINGFIELD MO
500 AM CST MON DEC 05 2016

NOTE: "FAIR" INDICATES FEW OR NO CLOUDS BELOW 12,000 FEET WITH NO
       SIGNIFICANT WEATHER AND/OR OBSTRUCTIONS TO VISIBILITY.
       CURRENT SKY AND/OR WEATHER CONDITIONS ARE NOT AVAILABLE FOR
       CHILLICOTHE AND FARMINGTON.

MOZ001>031-035>038-043-044-053-054-051200-
...NORTHERN AND WESTERN MISSOURI...

CITY           SKY/WX    TMP DP  RH WIND       PRES   REMARKS
KANSAS CTY INT CLEAR     30  28  92 S10       29.92S WCI  21
LEE`S SUMMIT   CLEAR     34  33  96 S10       29.94F WCI  26
ST JOSEPH      FOG       25  24  96 CALM      29.91S VSB 1/2
CHILLICOTHE      N/A     26  25  96 CALM      29.95F

$$
MOZ066>068-077>081-088>096-101>105-051200-
...SOUTHWEST MISSOURI...

CITY           SKY/WX    TMP DP  RH WIND       PRES   REMARKS
SPRINGFIELD    FOG       31  30  96 S9        29.99S VSB 1/4 WCI  23
JOPLIN         CLOUDY    34  34 100 S6        29.98F WCI  29

$$
MOZ032>034-039>042-045>050-055>058-069>072-051200-
...CENTRAL MISSOURI...

CITY           SKY/WX    TMP DP  RH WIND       PRES   REMARKS
COLUMBIA       NOT AVBL
JEFFERSON CITY FOG       27  26  96 SE6       30.02F VSB 1/2 WCI  20
ROLLA          CLOUDY    28  28 100 S3        29.99F FOG
SEDALIA        CLOUDY    31  30  96 S6        29.99F WCI  25
WARRENSBURG    CLEAR     32  32 100 S10       29.97F FOG     WCI  24

$$
MOZ051-052-059>065-051200-
...EAST CENTRAL MISSOURI...

CITY           SKY/WX    TMP DP  RH WIND       PRES   REMARKS
ST LOUIS INTL  MOCLDY    37  32  82 S8        30.04F
SPIRIT OF STL  CLOUDY    27  27 100 CALM      30.05S FOG

$$
MOZ072>076-082>087-097>100-106>115-051200-
...SOUTH CENTRAL AND SOUTHEAST MISSOURI...

CITY           SKY/WX    TMP DP  RH WIND       PRES   REMARKS
CAPE GIRARDEAU PTCLDY    32  30  92 CALM      30.06F
FARMINGTON     FOG       27  27 100 CALM      30.05S VSB 3/4
POPLAR BLUFF   CLOUDY    33  33 100 CALM      30.06S
WEST PLAINS    CLOUDY    32  31  96 CALM      30.04F

$$



USA.gov is the U.S. government's official web portal to all federal, state and local government web resources and services.